{"data":{"norad_id":66333,"epoch":"2026-05-25T00:34:13.158624Z","epoch_age_seconds":77009,"freshness":"FRESH","line1":"1 66333U 25253Q   26145.02376341  .00010183  00000+0  37892-3 0  9996","line2":"2 66333  42.9978 141.8576 0001229 272.4518  87.6192 15.27590250 31910","mean_motion":15.2759025,"eccentricity":0.0001229,"inclination_deg":42.9978,"raan_deg":141.8576,"arg_perigee_deg":272.4518,"mean_anomaly_deg":87.6192,"bstar":0.00037892,"rev_number":3191,"period_min":94.266116191826,"perigee_km":482.1751680247,"apogee_km":483.86164002301,"semimajor_km":6861.1554040239,"source":"CELESTRAK","updated_at":"2026-05-25T13:38:21.169519Z"}}